Snowfall_Accumulation
0.0 0.0 0.0 0.0 0.0 0.0 0.0 0.0 0.0 0.0 0.0 0.0 0.0 0.0 0.0 0.0 0.0 0.0 0.0 0.0 0.1 0.1 0.0 0.0 0.0 0.7 0.5 0.0 0.0 0.1 0.3 0.7 0.5 1.1 1.2 2.4 3.2 2.8 2.9 5.1 0.0 0.1 0.2 1.4
0.0 0.0 0.0 0.0 0.0 0.0 0.0 0.0 0.0 0.0 0.0 0.0 0.0 0.0 0.0 0.0 0.0 0.0 0.0 0.1 0.0 0.0 0.0 0.2 0.0 0.0 0.0 0.0 0.0 0.1 0.0 0.7 0.0 0.0 2.2 3.9 5.2 4.7 3.4 1.1 2.1 1.1 0.1 1.7
0.0 0.0 0.0 0.0 0.0 0.0 0.0 0.0 0.0 0.0 0.0 0.0 0.0 0.0 0.0 0.0 0.0 0.0 0.0 0.0 0.0 0.2 0.1 0.1 0.0 0.0 0.0 0.0 0.0 0.0 0.0 0.1 0.4 0.4 3.7 3.7 4.2 2.2 2.0 2.1 3.9 4.0 3.9 1.6
0.0 0.0 0.0 0.0 0.0 0.0 0.0 0.0 0.0 0.0 0.0 0.0 0.0 0.0 0.0 0.0 0.0 0.0 0.0 0.0 0.4 0.5 0.2 0.2 0.1 0.1 0.0 0.0 0.0 0.0 0.0 0.0 0.0 0.0 0.0 0.2 0.9 2.4 1.3 2.8 3.4 3.1 6.6 2.5
0.0 0.0 0.0 0.0 0.0 0.0 0.0 0.0 0.0 0.0 0.0 0.0 0.0 0.0 0.0 0.0 0.1 0.1 0.0 0.3 0.2 0.3 0.3 0.5 0.0 0.2 0.0 0.0 0.0 0.0 0.0 0.0 0.0 0.0 0.0 0.0 0.7 0.7 1.7 1.8 2.9 2.8 3.1 3.3
0.0 0.0 0.0 0.0 0.0 0.0 0.0 0.0 0.0 0.2 0.0 0.0 0.0 0.0 0.0 0.1 0.1 0.0 0.1 0.2 0.1 0.2 0.3 0.0 0.0 0.0 0.0 0.0 0.0 0.0 0.0 0.0 0.0 0.0 0.0 0.0 0.6 1.3 1.4 2.1 1.9 2.3 1.9 2.3
0.0 0.0 0.0 0.0 0.0 0.0 0.0 0.0 0.1 0.5 0.2 0.0 0.0 0.0 0.0 0.1 0.1 0.1 0.0 0.1 0.3 0.2 0.0 0.0 0.0 0.0 0.0 0.0 0.0 0.0 0.0 0.1 0.3 0.3 0.0 0.3 0.5 0.0 0.3 1.3 1.7 1.5 1.3 1.5
0.0 0.0 0.0 0.0 0.0 0.0 0.0 0.0 0.2 0.6 0.4 0.0 0.0 0.0 0.1 0.0 0.0 0.0 0.0 0.0 0.0 0.0 0.0 0.0 0.0 0.0 0.0 0.1 0.1 0.0 0.0 0.1 0.2 0.2 0.5 0.4 0.1 0.1 0.1 0.6 1.1 1.2 1.2 0.9
0.0 0.0 0.0 0.0 0.0 0.0 0.0 0.0 0.0 0.4 0.8 0.0 0.0 0.1 0.1 0.4 0.3 0.0 0.0 0.0 0.0 0.0 0.0 0.0 0.2 0.1 0.0 0.3 0.1 0.0 0.0 0.0 0.0 0.3 0.3 1.3 0.2 0.0 0.0 0.4 0.7 0.6 0.9 0.9
0.0 0.0 0.0 0.0 0.0 0.0 0.0 0.0 0.0 0.3 0.7 0.0 0.0 0.1 0.2 0.1 0.0 0.3 0.0 0.0 0.0 0.0 0.0 0.0 0.4 0.4 0.0 0.0 0.0 0.0 0.0 0.0 0.1 0.2 1.5 0.4 0.0 0.0 0.0 0.3 0.8 0.1 0.5 0.9
0.0 0.0 0.0 0.0 0.0 0.0 0.0 0.0 0.0 0.0 0.5 0.0 0.0 0.0 0.2 0.2 0.5 0.8 0.6 0.1 0.1 0.1 0.2 0.4 0.6 0.1 0.2 0.0 0.0 0.0 0.0 0.0 0.1 0.0 0.3 0.3 0.0 0.0 0.0 0.6 0.3 0.1 0.2 0.0
0.0 0.0 0.0 0.0 0.0 0.0 0.0 0.1 0.0 0.0 0.6 0.0 0.0 0.0 0.0 0.1 0.1 1.0 0.0 0.1 0.2 0.2 0.4 0.4 0.2 0.3 0.2 0.0 0.1 0.0 0.1 0.1 0.1 0.1 0.3 0.4 0.0 0.3 0.4 0.1 0.3 0.2 0.1 0.0
0.0 0.0 0.0 0.0 0.0 0.0 0.0 0.0 0.6 0.2 0.4 0.0 0.0 0.0 0.0 0.0 0.0 0.2 0.2 0.4 0.1 0.1 0.0 0.2 0.3 0.3 0.0 0.2 0.5 0.0 0.0 0.0 0.2 0.0 0.3 0.2 0.2 0.0 0.0 0.0 0.0 0.0 0.0 0.0
0.0 0.0 0.0 0.0 0.0 0.0 0.0 0.0 0.0 0.0 0.0 0.0 0.0 0.0 0.1 0.0 0.0 0.0 0.0 0.0 0.0 0.1 0.0 0.3 0.2 0.3 0.0 0.0 0.0 0.0 0.0 0.2 0.2 0.2 0.2 0.3 0.3 0.0 0.0 0.0 0.0 0.0 0.0 0.0
0.0 0.0 0.0 0.0 0.0 0.0 0.0 0.0 0.5 0.0 0.0 0.3 0.3 0.0 0.0 0.0 0.0 0.5 0.1 0.0 0.0 0.3 0.4 0.2 0.4 0.1 0.3 0.0 0.0 0.1 0.2 0.3 0.3 0.7 0.5 0.4 0.2 0.0 0.0 0.0 0.0 0.0 0.1 0.0
0.0 0.0 0.0 0.0 0.0 0.0 0.3 0.3 0.0 0.0 0.0 0.4 0.6 0.3 0.0 0.0 0.5 0.1 0.0 0.0 0.0 0.0 0.1 0.2 0.1 0.0 0.5 0.1 0.1 0.3 0.4 0.3 0.2 0.4 0.3 0.2 0.0 0.0 0.0 0.0 0.0 0.0 0.1 0.0
0.0 0.0 0.0 0.0 0.0 0.0 0.5 0.4 0.2 0.0 0.0 0.5 0.7 1.4 0.0 0.0 0.7 0.3 0.0 0.0 0.0 0.0 0.1 0.1 0.3 0.1 0.0 0.1 0.1 0.2 0.2 0.4 0.3 0.1 0.0 0.2 0.0 0.1 0.0 0.0 0.0 0.0 0.0 0.0
0.0 0.0 0.0 0.0 0.0 0.0 1.1 2.8 0.5 0.1 0.0 0.0 1.0 0.6 0.0 0.0 0.0 1.2 0.0 0.0 0.0 0.0 0.0 0.1 0.1 0.0 0.0 0.1 0.3 0.2 0.0 0.3 0.1 0.0 0.0 0.0 0.0 0.0 0.0 0.0 0.0 0.0 0.0 0.0
0.0 0.0 0.0 0.0 0.0 0.2 0.0 0.0 0.0 0.0 0.0 0.7 0.0 0.6 0.5 0.0 0.0 0.0 0.6 0.0 0.1 0.0 0.1 0.1 0.0 0.1 0.1 0.3 0.0 0.0 0.1 0.2 0.1 0.0 0.0 0.0 0.0 0.1 0.0 0.0 0.0 0.0 0.0 0.0
0.0 0.0 0.0 0.0 0.0 0.0 0.0 0.0 0.0 0.0 0.0 0.1 0.3 0.0 0.1 0.0 0.0 0.5 0.4 0.3 0.6 0.3 0.2 0.0 0.0 0.3 0.1 0.0 0.2 0.1 0.1 0.1 0.2 0.0 0.0 0.0 0.0 0.0 0.0 0.0 0.0 0.0 0.0 0.0
0.0 0.0 0.0 0.0 0.0 0.0 0.0 0.0 0.0 0.0 0.0 0.0 0.2 0.0 0.0 0.0 0.3 0.7 0.4 0.9 0.6 0.4 0.4 0.2 0.1 0.4 0.3 0.1 0.0 0.0 0.0 0.1 0.1 0.0 0.0 0.0 0.0 0.0 0.0 0.0 0.0 0.0 0.0 0.0
0.0 0.0 0.0 0.0 0.0 0.0 0.0 0.0 0.0 0.0 0.4 0.2 0.0 0.0 0.0 0.1 0.2 0.9 0.5 1.0 0.6 0.5 0.0 0.0 0.1 0.5 0.3 0.1 0.2 0.2 0.0 0.0 0.0 0.0 0.0 0.0 0.0 0.0 0.0 0.0 0.0 0.0 0.0 0.0
0.0 0.0 0.0 0.0 0.0 0.0 0.0 0.0 0.0 0.1 0.2 0.1 0.1 0.1 0.0 0.4 0.3 0.6 0.3 0.5 0.7 0.0 0.1 0.3 0.5 0.4 0.1 0.2 0.1 0.0 0.0 0.0 0.0 0.0 0.0 0.0 0.0 0.0 0.0 0.0 0.0 0.0 0.0 0.0
0.0 0.0 0.0 0.0 0.0 0.1 0.4 0.4 0.4 0.1 0.3 0.1 0.2 0.4 0.2 0.2 0.4 0.5 0.5 0.5 0.3 0.3 0.0 0.5 0.6 0.2 0.0 0.0 0.0 0.0 0.0 0.0 0.0 0.0 0.0 0.0 0.0 0.0 0.0 0.0 0.0 0.0 0.0 0.0
0.0 0.0 0.0 0.1 0.3 0.0 0.1 0.0 0.0 0.0 0.1 0.1 0.0 0.5 0.2 0.2 0.4 0.3 0.4 0.1 0.3 0.3 0.6 0.7 0.4 0.2 0.0 0.0 0.0 0.0 0.0 0.0 0.1 0.0 0.0 0.0 0.0 0.0 0.0 0.0 0.0 0.0 0.0 0.0
0.0 0.0 0.0 0.0 0.0 0.0 0.0 0.0 0.0 0.0 0.0 0.0 0.4 0.1 0.1 0.1 0.1 0.0 0.4 0.1 0.5 0.6 0.6 0.4 0.2 0.2 0.1 0.0 0.0 0.0 0.0 0.0 0.0 0.1 0.1 0.1 0.1 0.0 0.0 0.0 0.0 0.0 0.0 0.0
0.0 0.0 0.0 0.0 0.0 0.0 0.0 0.0 0.0 0.0 0.2 0.3 0.0 0.1 0.3 0.0 0.0 0.2 0.3 0.6 0.6 0.4 0.1 0.0 0.3 0.2 0.1 0.0 0.0 0.0 0.0 0.0 0.0 0.0 0.0 0.1 0.0 0.0 0.0 0.0 0.0 0.0 0.0 0.0